Location: Allos
(44.2333°N, 6.6333°E)
Time: 04:48:50
(UTC+00:00)

Meteor 1-5 Rocket - Pass Details

Date: 01 December 2020
Orbit: 788 x 916 km, 81.2° (Epoch: 24 January)

Event Time Altitude Azimuth Distance (km) Brightness Sun altitude
Rises 17:53:44 0° 349° (N) 3,547 7.4 -20.5°
Reaches altitude 10° 17:56:15 10° 350° (N) 2,590 6.7 -20.9°
Maximum altitude 18:02:11 88° 79° (E) 891 4.2 -22.0°
Drops below altitude 10° 18:07:53 10° 171° (S) 2,496 6.6 -23.0°
Sets 18:10:16 0° 171° (S) 3,409 7.4 -23.4°
